STARLINK-35244, 65829

Orbit data source: Space-Track

STARLINK-35244, 65829 is a payload satellite owned by SpaceX/Seattle (US) in LEO that was launched on Mon, 29 Sep 2025 UTC via an FALCON 9 launch vehicle from the Air Force Western Test Range (AFWTR). Payload-class satellites include a variety of spacecraft equipped with specific instruments for various scientific and technological missions. These include communications satellites like Starlink; space stations such as the ISS; scientific satellites like the Hubble; Earth observation satellites from companies like Planet Labs, Umbra, and HawkEye 360; GPS; miniature CubeSats for education and research; and military/defense satellites.

Loading next visibility...
Identifier
65829, 2025-221G
Orbit
LEO
Country
Flag of USUS
Related business
Manufacturer
SpaceX/Seattle
Mission
Operational Commercial Communications
Bus & Motor
STARLINK V2MO, Unknown motor
Mass
575 kg wet, ~530 kg dry
Launch date (UTC)
2025-09-29 (9 months ago)
Launch vehicle
FALCON 9
Launch site
Air Force Western Test Range (AFWTR)
Object type
Payload
Rocket body
Debris
Shape & HBR
Box + 2 Pan, 17.7 m
Radar Cross Section
36.964 m², Large (>1 m²)

Expand to show TLE details & history
Last TLE update: 19 hours ago

TLE from 19 hours ago
0 STARLINK-35244
1 65829U 25221G   26171.07049225  .00215624  00000-0  69828-2 0  9993
2 65829  53.1607 335.3025 0002242  55.4209 304.7004 15.30664265 41685
Epoch: 2026-06-20T01:41Z
TLE epoch observation values (Epoch: 2026-06-20T01:41:30.530Z)
Latitude
0.00004°
Longitude
41.63493°
Altitude
473.855 km
Speed
7.631 km/s
True Right ascension
22h 21m 12s
True Declination
0° 00' 00"
Sunlit
Object was in partial shadow at epoch
Visualization orbit readout
Latitude
Unknown
Longitude
Unknown
Altitude
Unknown
Speed
Unknown
Apparent Right ascension
Unknown
Apparent Declination
Unknown
Sunlit
N/A
Visualization observer readout
Local Sidereal Time
07:19:39
Azimuth
Unknown
Elevation
Unknown
Doppler factor
Unknown
Orbital elements
Apogee altitude
475.622 km
Perigee altitude
472.549 km
Semi-major axis
6,852.223 km
Eccentricity
0.00022
Inclination
53.1607°
RAAN
335.3025°
Arg. of periapsis
55.4209°
True anomaly
304.67927°
Mean anomaly
304.7004°
Eccentric anomaly
304.68984°
Mean motion
3.82645 °/min
Orbital period
94.08 mins
BSTAR
0.0069828
Loading maneuver chart data...
Computing Atmospheric mass density...
Loading historical data...
Loading historical data...
Loading historical data...
Loading historical data...
Loading historical data...
Loading historical data...
Loading historical data...

Documentation

Showing up to 5 results
|